Marshfield, WI

5:38 AM CST on November 20, 2019 (GMT -0600)
Marshfield Municipal

Weather History for KMFI - September, 2019

Change the Weather History Date:

Sunday, September 1, 2019

  Actual Average Record
Temperature  
Mean Temperature 60 °F -  
Max Temperature 73 °F 77 °F 93 °F (1937)
Min Temperature 48 °F 52 °F 32 °F (1949)
Degree Days  
Heating Degree Days 5    
Growing Degree Days 10 (Base 50)    
Moisture  
Dew Point 53 °F    
Average Humidity 78    
Maximum Humidity 93    
Minimum Humidity 53    
Precipitation  
Precipitation 0.00 in - - ()
Sea Level Pressure  
Sea Level Pressure 30.13 in    
Wind  
Wind Speed 3 mph (SW)    
Max Wind Speed 8 mph    
Max Gust Speed -    
Visibility 10 miles    
Events Rain    
Averages and records for this station are not official NWS values.
T = Trace of Precipitation, MM = Missing Value Source: NWS Daily Summary

Daily Weather History Graph

Daily Weather History Graph

Search for Another Location

Airport or City:

Astronomy

Sep. 01, 2019 Rise Set
Actual Time 6:22 AM CDT 7:37 PM CDT
Civil Twilight 5:52 AM CDT 8:07 PM CDT
Nautical Twilight 5:16 AM CDT 8:43 PM CDT
Astronomical Twilight 4:38 AM CDT 9:22 PM CDT
Moon 8:57 AM CDT (9/1) 9:18 PM CDT (9/1)
Length of Visible Light 14h 14m
Length of Day
13h 14m
Waxing Crescent, 8% of the Moon is Illuminated
Sep 1
Waxing Crescent
Sep 5
First Quarter
Sep 13
Full
Sep 21
Last Quarter
Sep 28
New

Hourly Weather History & Observations

Time (CDT) Temp. Dew Point Humidity Pressure Visibility Wind Dir Wind Speed Gust Speed Precip Events Conditions
12:54 AM 54.0 °F 50.0 °F 86% 30.24 in 10.0 mi Calm Calm - N/A   Clear
1:54 AM 52.0 °F 48.0 °F 86% 30.22 in 10.0 mi Calm Calm - N/A   Clear
2:54 AM 50.0 °F 48.0 °F 93% 30.22 in 10.0 mi Calm Calm - N/A   Clear
3:54 AM 50.0 °F 46.9 °F 89% 30.21 in 10.0 mi East 3.5 mph - N/A   Clear
4:54 AM 50.0 °F 46.9 °F 89% 30.20 in 10.0 mi ENE 3.5 mph - N/A   Clear
5:54 AM 50.0 °F 46.9 °F 89% 30.19 in 8.0 mi Calm Calm - N/A   Partly Cloudy
6:54 AM 48.9 °F 46.0 °F 90% 30.18 in 9.0 mi East 4.6 mph - N/A   Partly Cloudy
7:54 AM 53.1 °F 48.9 °F 86% 30.19 in 10.0 mi Calm Calm - N/A   Overcast
8:54 AM 57.0 °F 51.1 °F 81% 30.17 in 10.0 mi SSE 5.8 mph - N/A   Overcast
9:54 AM 62.1 °F 54.0 °F 75% 30.17 in 10.0 mi SSW 4.6 mph - N/A   Overcast
10:54 AM 64.9 °F 54.0 °F 68% 30.16 in 10.0 mi SW 5.8 mph - N/A   Overcast
11:54 AM 69.1 °F 55.0 °F 61% 30.14 in 10.0 mi SSW 8.1 mph - N/A   Overcast
12:54 PM 70.0 °F 53.1 °F 55% 30.12 in 10.0 mi WSW 6.9 mph - N/A   Overcast
1:54 PM 70.0 °F 52.0 °F 53% 30.10 in 10.0 mi WSW 6.9 mph - N/A   Overcast
2:54 PM 72.0 °F 55.0 °F 55% 30.08 in 10.0 mi Variable 6.9 mph - N/A   Overcast
3:54 PM 72.0 °F 55.9 °F 57% 30.07 in 10.0 mi WSW 6.9 mph - N/A   Mostly Cloudy
4:54 PM 69.1 °F 55.0 °F 61% 30.07 in 10.0 mi West 6.9 mph - N/A   Overcast
5:54 PM 64.9 °F 57.0 °F 75% 30.06 in 9.0 mi Variable 6.9 mph - 0.00 in Rain Light Rain
6:54 PM 64.0 °F 57.9 °F 80% 30.06 in 10.0 mi Calm Calm - 0.00 in   Overcast
7:54 PM 62.1 °F 57.0 °F 84% 30.04 in 10.0 mi Calm Calm - N/A   Overcast
8:54 PM 61.0 °F 57.0 °F 87% 30.05 in 10.0 mi Calm Calm - N/A   Overcast
9:54 PM 61.0 °F 57.0 °F 87% 30.05 in 10.0 mi Calm Calm - N/A   Mostly Cloudy
10:54 PM 59.0 °F 55.9 °F 90% 30.05 in 10.0 mi WSW 3.5 mph - N/A   Mostly Cloudy
11:54 PM 60.1 °F 55.9 °F 86% 30.04 in 10.0 mi West 5.8 mph - N/A   Partly Cloudy